FIN27H EETN-EFHK

Flight info

Callsign FIN27H
Flight time 0h 23m
Altitude 9000
Route INTOR
Aircraft AT75/M-SDFGIRY/S

Departure

Time 2026-05-07 18:37
Airport Lennart Meri Tallinn Airport (EETN)

Arrival

Time 2026-05-07 19:01
Airport Helsinki Vantaa Airport (EFHK)
Time Latitude Longitude Altitude Speed Heading
2026-05-07 18:06 59.41690 24.80193 158 ft 0 kts 179°
2026-05-07 18:30 59.41705 24.80192 158 ft 3 kts 178°
2026-05-07 18:30 59.41725 24.80189 158 ft 3 kts 168°
2026-05-07 18:30 59.41743 24.80178 158 ft 3 kts 135°
2026-05-07 18:30 59.41749 24.80159 158 ft 1 kts 91°
2026-05-07 18:31 59.41749 24.80157 158 ft 0 kts 90°
2026-05-07 18:33 59.41749 24.80161 158 ft 2 kts 90°
2026-05-07 18:33 59.41749 24.80215 158 ft 7 kts 92°
2026-05-07 18:33 59.41745 24.80317 158 ft 9 kts 98°
2026-05-07 18:33 59.41731 24.80443 158 ft 10 kts 114°
2026-05-07 18:34 59.41677 24.80506 158 ft 11 kts 164°
2026-05-07 18:34 59.41605 24.80512 158 ft 8 kts 180°
2026-05-07 18:34 59.41533 24.80504 158 ft 12 kts 188°
2026-05-07 18:34 59.41479 24.80475 158 ft 1 kts 197°
2026-05-07 18:35 59.41447 24.80474 158 ft 4 kts 164°
2026-05-07 18:35 59.41435 24.80488 158 ft 0 kts 144°
2026-05-07 18:35 59.41434 24.80490 158 ft 2 kts 143°
2026-05-07 18:36 59.41400 24.80551 158 ft 10 kts 135°
2026-05-07 18:36 59.41343 24.80659 156 ft 8 kts 131°
2026-05-07 18:36 59.41332 24.80737 157 ft 0 kts 89°
2026-05-07 18:36 59.41332 24.80740 157 ft 6 kts 89°
2026-05-07 18:37 59.41331 24.81273 159 ft 70 kts 90°
2026-05-07 18:37 59.41326 24.82603 156 ft 122 kts 89°
2026-05-07 18:37 59.41319 24.84404 467 ft 137 kts 89°
2026-05-07 18:37 59.41320 24.86345 925 ft 146 kts 86°
2026-05-07 18:38 59.41597 24.88270 1431 ft 148 kts 56°
2026-05-07 18:38 59.42342 24.89589 1986 ft 145 kts 25°
2026-05-07 18:38 59.43298 24.90257 2502 ft 148 kts 15°
2026-05-07 18:38 59.44298 24.90759 3050 ft 147 kts 10°
2026-05-07 18:39 59.45332 24.91091 3417 ft 159 kts
2026-05-07 18:39 59.46483 24.91283 3652 ft 170 kts
2026-05-07 18:39 59.47668 24.91456 4054 ft 170 kts
2026-05-07 18:39 59.48846 24.91684 4475 ft 170 kts
2026-05-07 18:40 59.50022 24.91958 4904 ft 170 kts
2026-05-07 18:40 59.51194 24.92249 5299 ft 170 kts
2026-05-07 18:40 59.52371 24.92538 5702 ft 170 kts
2026-05-07 18:40 59.53534 24.92814 6093 ft 171 kts
2026-05-07 18:41 59.54715 24.93092 6493 ft 171 kts
2026-05-07 18:41 59.55903 24.93378 6837 ft 173 kts
2026-05-07 18:41 59.57106 24.93668 7185 ft 175 kts
2026-05-07 18:41 59.58324 24.93958 7524 ft 178 kts
2026-05-07 18:42 59.59559 24.94251 7867 ft 180 kts
2026-05-07 18:42 59.60811 24.94547 8208 ft 182 kts
2026-05-07 18:42 59.62075 24.94849 8551 ft 184 kts
2026-05-07 18:42 59.63357 24.95150 8887 ft 187 kts
2026-05-07 18:43 59.64690 24.95464 9013 ft 200 kts
2026-05-07 18:43 59.66118 24.95800 9064 ft 214 kts
2026-05-07 18:43 59.67635 24.96157 9089 ft 225 kts
2026-05-07 18:43 59.69224 24.96533 9101 ft 235 kts
2026-05-07 18:44 59.70870 24.96921 9098 ft 242 kts
2026-05-07 18:44 59.72556 24.97325 9099 ft 247 kts
2026-05-07 18:44 59.74276 24.97735 9109 ft 251 kts
2026-05-07 18:44 59.76017 24.98156 9094 ft 254 kts
2026-05-07 18:45 59.77775 24.98576 9105 ft 256 kts
2026-05-07 18:45 59.79546 24.99001 9101 ft 257 kts
2026-05-07 18:45 59.81320 24.99424 9101 ft 257 kts
2026-05-07 18:45 59.83100 24.99850 9105 ft 257 kts
2026-05-07 18:46 59.84876 25.00277 9104 ft 258 kts
2026-05-07 18:46 59.86657 25.00705 9106 ft 258 kts
2026-05-07 18:46 59.88437 25.01133 9107 ft 258 kts
2026-05-07 18:46 59.90221 25.01564 9106 ft 258 kts
2026-05-07 18:47 59.92003 25.01994 9106 ft 258 kts
2026-05-07 18:47 59.93788 25.02421 9106 ft 258 kts
2026-05-07 18:47 59.95572 25.02856 9104 ft 258 kts
2026-05-07 18:47 59.97357 25.03287 9103 ft 259 kts
2026-05-07 18:48 59.99143 25.03718 9105 ft 259 kts
2026-05-07 18:48 60.00929 25.04150 9102 ft 259 kts
2026-05-07 18:48 60.02717 25.04585 9099 ft 259 kts
2026-05-07 18:48 60.04503 25.05023 9094 ft 259 kts
2026-05-07 18:49 60.06292 25.05459 9091 ft 259 kts
2026-05-07 18:49 60.08081 25.05890 9091 ft 259 kts
2026-05-07 18:49 60.09874 25.06329 9014 ft 262 kts
2026-05-07 18:49 60.11703 25.06772 8782 ft 267 kts
2026-05-07 18:50 60.13533 25.07230 8409 ft 263 kts
2026-05-07 18:50 60.15338 25.07673 8035 ft 260 kts
2026-05-07 18:50 60.17126 25.08103 7668 ft 257 kts
2026-05-07 18:50 60.18894 25.08535 7304 ft 255 kts
2026-05-07 18:51 60.20647 25.08969 6943 ft 253 kts
2026-05-07 18:51 60.22385 25.09394 6593 ft 251 kts
2026-05-07 18:51 60.24110 25.09821 6222 ft 249 kts
2026-05-07 18:51 60.25816 25.10245 5927 ft 245 kts
2026-05-07 18:52 60.27493 25.10655 5670 ft 241 kts
2026-05-07 18:52 60.29145 25.11062 5407 ft 238 kts
2026-05-07 18:52 60.30780 25.11462 5185 ft 235 kts
2026-05-07 18:52 60.32375 25.11855 5090 ft 227 kts
2026-05-07 18:53 60.33924 25.12233 5041 ft 220 kts
2026-05-07 18:53 60.35441 25.12524 5020 ft 217 kts 356°
2026-05-07 18:53 60.36861 25.11625 5009 ft 214 kts 334°
2026-05-07 18:53 60.38181 25.10240 5007 ft 215 kts 332°
2026-05-07 18:54 60.39494 25.08783 5003 ft 216 kts 332°
2026-05-07 18:54 60.40814 25.07319 4840 ft 222 kts 332°
2026-05-07 18:54 60.42196 25.05839 4587 ft 226 kts 333°
2026-05-07 18:54 60.43597 25.04380 4323 ft 227 kts 333°
2026-05-07 18:55 60.45003 25.02934 4083 ft 225 kts 333°
2026-05-07 18:55 60.46325 25.01586 3817 ft 199 kts 333°
2026-05-07 18:55 60.47523 25.00357 3550 ft 183 kts 330°
2026-05-07 18:55 60.48294 24.98432 3291 ft 187 kts 287°
2026-05-07 18:56 60.48269 24.95747 3030 ft 196 kts 264°
2026-05-07 18:56 60.47953 24.93020 2778 ft 202 kts 256°
2026-05-07 18:56 60.47451 24.90358 2515 ft 202 kts 249°
2026-05-07 18:56 60.46834 24.87866 2272 ft 191 kts 243°
2026-05-07 18:57 60.46110 24.85744 2128 ft 174 kts 234°
2026-05-07 18:57 60.45061 24.84587 2074 ft 180 kts 187°
2026-05-07 18:57 60.43856 24.85127 2045 ft 179 kts 152°
2026-05-07 18:57 60.42770 24.86343 2045 ft 178 kts 150°
2026-05-07 18:58 60.41693 24.87580 2032 ft 177 kts 151°
2026-05-07 18:58 60.40600 24.88724 1905 ft 173 kts 154°
2026-05-07 18:58 60.39541 24.89757 1661 ft 164 kts 154°
2026-05-07 18:58 60.38553 24.90760 1433 ft 154 kts 153°
2026-05-07 18:59 60.37620 24.91743 1238 ft 147 kts 154°
2026-05-07 18:59 60.36749 24.92646 1028 ft 135 kts 154°
2026-05-07 18:59 60.35938 24.93479 845 ft 127 kts 155°
2026-05-07 18:59 60.35170 24.94267 663 ft 122 kts 155°
2026-05-07 19:00 60.34427 24.95029 505 ft 117 kts 155°
2026-05-07 19:00 60.33707 24.95760 350 ft 115 kts 156°
2026-05-07 19:00 60.32995 24.96492 212 ft 114 kts 155°
2026-05-07 19:00 60.32333 24.97162 157 ft 78 kts 153°
2026-05-07 19:01 60.31949 24.97560 150 ft 56 kts 152°
2026-05-07 19:01 60.31647 24.97868 150 ft 43 kts 152°
2026-05-07 19:01 60.31452 24.97973 152 ft 20 kts 217°
2026-05-07 19:01 60.31408 24.97843 156 ft 0 kts 242°
2026-05-07 19:02 60.31404 24.97829 157 ft 4 kts 240°
2026-05-07 19:02 60.31389 24.97769 158 ft 3 kts 243°
2026-05-07 19:02 60.31383 24.97696 159 ft 2 kts 282°
2026-05-07 19:02 60.31393 24.97659 159 ft 3 kts 298°
2026-05-07 19:03 60.31394 24.97608 159 ft 2 kts 255°
2026-05-07 19:03 60.31393 24.97601 159 ft 1 kts 250°
2026-05-07 19:03 60.31387 24.97576 160 ft 2 kts 242°
2026-05-07 19:03 60.31382 24.97555 160 ft 0 kts 243°
2026-05-07 19:04 60.31380 24.97544 160 ft 0 kts 242°
2026-05-07 19:04 60.31377 24.97533 160 ft 0 kts 242°
2026-05-07 19:04 60.31376 24.97529 160 ft 1 kts 243°
2026-05-07 19:04 60.31374 24.97519 160 ft 1 kts 242°
2026-05-07 19:05 60.31372 24.97511 160 ft 0 kts 240°